Torna al catalogo

ONEWEB-0614

AttivoComunicazioniPO
NORAD 55156·PAYLOAD·🇬🇧 United Kingdom

Lanciato Jan 10, 2023 da Cape Canaveral Space Force Station

Loading…

Prossimi Passaggi (prossime 24 ore)

TLE

AggiornatoSource: CelesTrak SupGP

Epoca: Sep 14, 2026, 10:20 UTC

1 55156C 23004S   26257.43106898 -.00003671  00000+0 -10370-1 0  2579
2 55156  87.8973   3.3310 0001895 114.7034 286.3509 13.11424074    10

Traccia ONEWEB-0614 in tempo reale con AllMySat

Download on the App Store